Hourly Data Report for September 22, 2017

All times are specified in Local Standard Time (LST). Add 1 hour to adjust for Daylight Saving Time where and when it is observed.

BATHURST A
NEW BRUNSWICK

47°37'47.000" N
65°44'20.000" W
58.80 m
8100505
71574
ZBF

Download Data

Hourly Data (September 2017)
Hourly Data Report for September 22, 2017
Temp Definition
°C
Dew Point Temp Definition
°C
Rel Hum Definition
%
Wind Dir Definition
10's deg

Wind Spd Definition
km/h
Visibility Definition
km
Stn Press Definition
kPa
Hmdx Definition


Wind Chill Definition


Weather Definition


TIME
00:00 Legend Double Dagger 6.0 5.7 98 36 1 24.1 101.65     LegendNANA
01:00 Legend Double Dagger 5.0 4.7 98 21 5 24.1 101.66     LegendNANA
02:00 Legend Double Dagger 4.4 4.0 98 21 4 24.1 101.63     Clear
03:00 Legend Double Dagger 4.4 3.9 97 23 4 24.1 101.61     LegendNANA
04:00 Legend Double Dagger 4.2 3.7 96 22 5 24.1 101.59     LegendNANA
05:00 Legend Double Dagger 4.4 3.8 96 22 4 24.1 101.60     Clear
06:00 Legend Double Dagger 5.5 4.9 96 28 3 24.1 101.64     LegendNANA
07:00 Legend Double Dagger 5.7 5.3 97 26 3 24.1 101.64     LegendNANA
08:00 Legend Double Dagger 9.0 7.2 88 20 3 24.1 101.66     Mainly Clear
09:00 Legend Double Dagger 12.4 8.6 77 18 6 24.1 101.63     LegendNANA
10:00 Legend Double Dagger 15.0 9.1 67 19 4 24.1 101.58     LegendNANA
11:00 Legend Double Dagger 18.4 9.8 57 11 3 24.1 101.51     Clear
12:00 Legend Double Dagger 20.6 9.9 50 17 7 24.1 101.43     LegendNANA
13:00 Legend Double Dagger 21.9 10.0 46 15 6 24.1 101.35     LegendNANA
14:00 Legend Double Dagger 23.1 10.5 44 19 7 24.1 101.30 25   Clear
15:00 Legend Double Dagger 23.7 10.0 41 18 9 24.1 101.22 25   LegendNANA
16:00 Legend Double Dagger 24.0 10.8 43 15 6 24.1 101.17 26   LegendNANA
17:00 Legend Double Dagger 23.1 10.9 46 18 7 24.1 101.14 25   Clear
18:00 Legend Double Dagger 20.6 10.2 51 21 7 24.1 101.09     LegendNANA
19:00 Legend Double Dagger 15.9 11.9 76 24 6 24.1 101.10     LegendNANA
20:00 Legend Double Dagger 14.8 11.0 78 21 5 24.1 101.08     Clear
21:00 Legend Double Dagger 13.2 10.4 83 36 2 24.1 101.09     LegendNANA
22:00 Legend Double Dagger 12.2 10.3 88 23 4 24.1 101.07     LegendNANA
23:00 Legend Double Dagger 11.2 9.7 91 21 4 24.1 101.03     Clear

Notes on Data Quality.

Legend

  • E = Estimated
  • M = Missing
  • NA = Not Available
  • ‡ = Partner data that is not subject to review by the National Climate Archives
Date modified: